Philadelphia Wings Airport, PA

10:09 PM EDT on October 14, 2019 (GMT -0400)
Philadelphia Wings Airport

Weather History for KLOM - August, 2019

Change the Weather History Date:

Thursday, August 15, 2019

  Actual Average (KPNE) Record (KPNE)
Temperature  
Mean Temperature 75 °F -  
Max Temperature 83 °F 83 °F 93 °F (2002)
Min Temperature 67 °F 65 °F 57 °F (2013)
Cooling Degree Days 10    
Growing Degree Days 25 (Base 50)    
Moisture  
Dew Point 68 °F    
Average Humidity 80    
Maximum Humidity 100    
Minimum Humidity 60    
Precipitation  
Precipitation 0.12 in - - ()
Sea Level Pressure  
Sea Level Pressure 29.99 in    
Wind  
Wind Speed 3 mph (East)    
Max Wind Speed 12 mph    
Max Gust Speed -    
Visibility 7 miles    
Events Fog    
Averages and records for this station are not official NWS values.
T = Trace of Precipitation, MM = Missing Value Source: NWS Daily Summary

Daily Weather History Graph

Daily Weather History Graph

Search for Another Location

Airport or City:

Astronomy

Aug. 15, 2019 Rise Set
Actual Time 6:12 AM EDT 7:58 PM EDT
Civil Twilight 5:43 AM EDT 8:27 PM EDT
Nautical Twilight 5:07 AM EDT 9:02 PM EDT
Astronomical Twilight 4:29 AM EDT 9:40 PM EDT
Moon 8:25 PM EDT 6:04 AM EDT
Length of Visible Light 14h 44m
Length of Day
13h 46m
Full, 100% of the Moon is Illuminated
Aug 15
Full
Aug 23
Last Quarter
Aug 30
New
Sep 5
First Quarter
Sep 14
Full

Hourly Weather History & Observations

Time (EDT) Temp. Heat Index Dew Point Humidity Pressure Visibility Wind Dir Wind Speed Gust Speed Precip Events Conditions
12:15 AM 69.6 °F - 69.4 °F 99% 29.94 in 0.8 mi Calm Calm - 0.08 in   Mostly Cloudy
12:35 AM 69.3 °F - 69.3 °F 100% 29.94 in 0.8 mi Calm Calm - 0.12 in   Mist
12:55 AM 68.5 °F - 68.0 °F 98% 29.94 in 0.5 mi Calm Calm - 0.12 in Fog Fog
1:15 AM 68.9 °F - - N/A% 29.94 in 0.8 mi Calm Calm - N/A   Overcast
1:35 AM 68.5 °F - - N/A% 29.95 in 0.2 mi Calm Calm - N/A Fog Fog
1:55 AM 67.8 °F - - N/A% 29.95 in 0.2 mi Calm Calm - N/A Fog Fog
2:15 AM 68.0 °F - - N/A% 29.94 in 0.2 mi Calm Calm - N/A Fog Fog
2:35 AM 68.7 °F - - N/A% 29.95 in 0.2 mi Calm Calm - N/A Fog Fog
2:55 AM 68.2 °F - - N/A% 29.95 in 0.2 mi Calm Calm - N/A Fog Fog
3:15 AM 68.0 °F - - N/A% 29.95 in 0.2 mi Calm Calm - N/A Fog Fog
3:35 AM 68.5 °F - - N/A% 29.95 in 0.2 mi Calm Calm - N/A Fog Fog
3:55 AM 69.1 °F - - N/A% 29.95 in 0.2 mi Calm Calm - N/A Fog Fog
4:15 AM 69.4 °F - - N/A% 29.95 in 0.5 mi Calm Calm - N/A Fog Fog
4:35 AM 69.6 °F - - N/A% 29.95 in 1.2 mi Calm Calm - N/A   Overcast
4:55 AM 69.6 °F - - N/A% 29.95 in 2.0 mi North 3.5 mph - N/A   Overcast
5:15 AM 69.8 °F - - N/A% 29.95 in 3.0 mi NE 3.5 mph - N/A   Overcast
5:35 AM 69.8 °F - 69.8 °F 100% 29.95 in 3.0 mi NNE 3.5 mph - N/A   Overcast
6:15 AM 69.4 °F - 69.3 °F 99% 29.96 in 1.8 mi Calm Calm - N/A   Overcast
6:35 AM 68.5 °F - 68.4 °F 99% 29.97 in 0.5 mi Calm Calm - N/A Fog Fog
6:55 AM 68.5 °F - 68.0 °F 98% 29.98 in 0.2 mi North 3.5 mph - N/A Fog Fog
7:15 AM 69.6 °F - 69.6 °F 100% 29.98 in 1.2 mi North 3.5 mph - N/A   Scattered Clouds
7:35 AM 70.0 °F - 69.8 °F 99% 29.99 in 1.8 mi NE 3.5 mph - N/A   Mist
7:55 AM 70.9 °F - 70.2 °F 98% 30.00 in 2.5 mi Calm Calm - N/A   Mostly Cloudy
8:15 AM 71.4 °F - 70.3 °F 96% 30.01 in 3.0 mi East 3.5 mph - N/A   Overcast
8:35 AM 71.6 °F - 70.2 °F 95% 30.02 in 4.0 mi East 4.6 mph - N/A   Overcast
8:55 AM 72.1 °F - 70.5 °F 95% 30.01 in 5.0 mi ENE 4.6 mph - N/A   Overcast
9:15 AM 73.2 °F - 70.0 °F 90% 30.02 in 7.0 mi East 5.8 mph - N/A   Overcast
9:35 AM 72.5 °F - 70.0 °F 92% 30.02 in 7.0 mi ENE 5.8 mph - N/A   Overcast
9:55 AM 72.9 °F - 69.4 °F 89% 30.03 in 10.0 mi East 6.9 mph - N/A   Overcast
10:15 AM 74.8 °F - 69.6 °F 84% 30.03 in 10.0 mi East 6.9 mph - N/A   Mostly Cloudy
10:35 AM 75.7 °F - 69.8 °F 82% 30.04 in 10.0 mi East 5.8 mph - N/A   Mostly Cloudy
10:55 AM 77.4 °F - 70.7 °F 80% 30.03 in 10.0 mi East 4.6 mph - N/A   Mostly Cloudy
11:15 AM 76.5 °F - 69.4 °F 79% 30.03 in 10.0 mi East 8.1 mph - N/A   Mostly Cloudy
11:35 AM 77.7 °F - 69.4 °F 76% 30.03 in 10.0 mi ENE 5.8 mph - N/A   Mostly Cloudy
11:55 AM 78.8 °F - 69.8 °F 74% 30.02 in 10.0 mi NE 5.8 mph - N/A   Mostly Cloudy
12:15 PM 81.1 °F 84.5 °F 69.8 °F 68% 30.02 in 10.0 mi ENE 6.9 mph - N/A   Scattered Clouds
12:35 PM 81.7 °F 84.7 °F 68.5 °F 64% 30.02 in 10.0 mi East 5.8 mph - N/A   Scattered Clouds
12:55 PM 81.9 °F 85.0 °F 68.5 °F 64% 30.01 in 10.0 mi SE 6.9 mph - N/A   Clear
1:15 PM 82.6 °F 86.1 °F 69.3 °F 64% 30.01 in 10.0 mi SE 8.1 mph - N/A   Scattered Clouds
1:35 PM 83.5 °F 86.9 °F 68.7 °F 61% 30.00 in 10.0 mi SE 5.8 mph - N/A   Mostly Cloudy
1:55 PM 80.1 °F 82.6 °F 67.6 °F 66% 30.00 in 10.0 mi East 8.1 mph - N/A   Overcast
2:15 PM 80.6 °F 82.9 °F 66.9 °F 63% 30.00 in 10.0 mi East 6.9 mph - N/A   Overcast
2:35 PM 83.3 °F 86.4 °F 68.0 °F 60% 29.98 in 10.0 mi ESE 8.1 mph - N/A   Mostly Cloudy
2:55 PM 83.5 °F 86.7 °F 68.2 °F 60% 29.98 in 10.0 mi East 8.1 mph - N/A   Scattered Clouds
3:15 PM 82.4 °F 85.0 °F 67.3 °F 60% 29.97 in 10.0 mi ESE 8.1 mph - N/A   Scattered Clouds
3:35 PM 81.9 °F 84.2 °F 66.9 °F 60% 29.97 in 10.0 mi East 6.9 mph - N/A   Scattered Clouds
3:55 PM 81.7 °F 84.2 °F 66.9 °F 61% 29.97 in 10.0 mi East 9.2 mph - N/A   Scattered Clouds
4:15 PM 81.1 °F 83.9 °F 67.8 °F 64% 29.97 in 10.0 mi East 5.8 mph - N/A   Clear
4:35 PM 80.1 °F 82.2 °F 66.6 °F 63% 29.96 in 10.0 mi East 6.9 mph - N/A   Clear
4:55 PM 79.7 °F - 65.7 °F 62% 29.96 in 10.0 mi East 8.1 mph - N/A   Clear
5:15 PM 79.7 °F - 66.0 °F 63% 29.97 in 10.0 mi East 8.1 mph - N/A   Clear
5:35 PM 81.0 °F 83.0 °F 65.8 °F 60% 29.98 in 10.0 mi East 8.1 mph - N/A   Clear
5:55 PM 79.7 °F - 65.1 °F 61% 29.99 in 10.0 mi East 11.5 mph - N/A   Clear
6:15 PM 78.6 °F - 65.3 °F 64% 29.99 in 10.0 mi East 6.9 mph - N/A   Clear
6:35 PM 78.3 °F - 66.4 °F 67% 29.98 in 10.0 mi East 8.1 mph - N/A   Clear
6:55 PM 77.9 °F - 66.4 °F 68% 29.98 in 10.0 mi ESE 8.1 mph - N/A   Clear
7:15 PM 76.8 °F - 66.6 °F 70% 29.98 in 10.0 mi ESE 9.2 mph - N/A   Clear
7:35 PM 75.6 °F - 67.1 °F 75% 29.98 in 10.0 mi ESE 6.9 mph - N/A   Clear
7:55 PM 73.4 °F - 67.5 °F 82% 29.99 in 10.0 mi ESE 3.5 mph - N/A   Clear
8:15 PM 73.2 °F - 67.3 °F 82% 29.98 in 10.0 mi ESE 6.9 mph - N/A   Clear
8:35 PM 72.3 °F - 67.3 °F 84% 29.99 in 10.0 mi East 4.6 mph - N/A   Clear
8:55 PM 71.6 °F - 66.9 °F 85% 30.01 in 10.0 mi East 3.5 mph - N/A   Clear
9:15 PM 71.1 °F - 66.7 °F 86% 30.01 in 10.0 mi East 4.6 mph - N/A   Clear
9:35 PM 70.3 °F - 66.6 °F 88% 30.02 in 10.0 mi East 4.6 mph - N/A   Clear
9:55 PM 69.4 °F - 66.6 °F 91% 30.01 in 10.0 mi East 3.5 mph - N/A   Clear
10:15 PM 69.1 °F - 66.7 °F 92% 30.01 in 10.0 mi East 4.6 mph - N/A   Clear
10:35 PM 69.3 °F - 66.9 °F 92% 30.02 in 10.0 mi ENE 3.5 mph - N/A   Clear
10:55 PM 70.3 °F - 67.3 °F 90% 30.00 in 10.0 mi SE 10.4 mph - N/A   Clear
11:15 PM 70.3 °F - 67.1 °F 89% 30.01 in 10.0 mi East 5.8 mph - N/A   Clear
11:35 PM 69.4 °F - 66.9 °F 92% 30.03 in 10.0 mi East 3.5 mph - N/A   Scattered Clouds
11:55 PM 69.6 °F - 67.3 °F 92% 30.04 in 10.0 mi East 3.5 mph - N/A   Overcast